[[{"header":{"parameterUnit":"m.s-1","parameterCategory":1,"la1":30.2991,"la2":30.254,"lo1":-89.0895,"lo2":-89.0444,"dy":0.0017,"dx":0.0017,"nx":28,"ny":28,"refTime":"2023-10-19T03:00:00:Z","depth":0,"parameterNumber":2,"parameterNumberName":"U-component_of_WINDS"},"data":[0,0,0,0,0,0,0,0,0,0,0,0,0,0,0,0,0,0,0,0,0,0,0,0,0,0,0,0,0,0,0,0,0,0,0,0,0,0,0,0,0,0,0,0,0,0,0,0,0,0,0,0,0,0,0,0,0,0,1.0118,1.0118,0,1.0128,1.0128,1.0128,1.0111,1.0111,1.011,1.011,1.0118,1.0118,1.0119,0,0,0,0,0,0,0,0,0,0,0,0,0,1.0081,1.0082,1.0118,1.0118,1.0118,1.0128,1.0128,1.0128,1.0112,1.0111,1.011,1.011,1.0117,1.0118,1.0119,0,0,0,0,0,0,0,0,0,0,0,0,0,1.0095,1.0082,1.0118,1.0111,1.0111,1.0128,1.0128,1.0128,1.0112,1.0111,1.011,1.0109,1.0117,1.0118,1.0119,1.0143,0,0,1.0123,1.0123,0,0,0,0,0,0,0,0,1.0094,1.0096,1.0112,1.0112,1.0111,1.0118,1.0118,1.0133,1.0112,1.0111,1.011,1.0109,1.0118,1.0119,1.0123,1.0143,1.0144,1.0123,1.0123,1.0124,1.0124,0,0,0,0,0,0,0,1.0093,1.0095,1.0122,1.0112,1.0112,1.0106,1.0107,1.0121,1.0119,1.0111,1.011,1.0112,1.0118,1.0122,1.0123,1.0144,1.0123,1.0124,1.0124,1.0125,1.0181,1.0182,0,0,0,0,0,0,1.0093,1.0095,1.0122,1.0122,1.01,1.0108,1.0109,1.0116,1.0119,1.0119,1.0112,1.0111,1.012,1.0122,1.0123,1.0149,1.0124,1.0125,1.0126,1.018,1.0181,1.0182,0,0,0,0,0,0,1.0093,1.0096,1.0121,1.0108,1.0111,1.0109,1.0118,1.0117,1.0121,1.012,1.0119,1.0117,1.012,1.0122,1.0138,1.0149,1.0125,1.0126,1.0179,1.018,1.0182,1.0201,0,0,0,0,0,0,1.0092,1.0096,1.0106,1.0109,1.0112,1.0137,1.0119,1.0118,1.0123,1.0121,1.0124,1.0124,1.0119,1.0136,1.0139,1.015,1.0127,1.0178,1.018,1.0181,1.02,1.0203,1.0206,0,0,0,0,0,1.009,1.0111,1.0106,1.011,1.0124,1.0138,1.0139,1.0134,1.0124,1.0133,1.0132,1.0124,1.0147,1.0138,1.0141,1.0152,1.0177,1.0179,1.0181,1.0198,1.0202,1.0206,0,0,0,0,0,0,1.011,1.0111,1.0106,1.0129,1.0133,1.0135,1.0146,1.0139,1.0146,1.0144,1.0137,1.0138,1.0154,1.0155,1.0145,1.0174,1.016,1.0163,1.0172,1.0176,1.018,1.0178,1.0128,0,0,0,0,0,1.0117,1.0128,1.0129,1.0148,1.0151,1.0148,1.0154,1.0149,1.0153,1.0155,1.0155,1.0158,1.0166,1.0172,1.0179,1.02,1.0199,1.0209,1.0212,1.0215,1.0217,1.0225,1.0229,1.0188,1.0188,1.0188,0,0,1.0131,1.0133,1.0141,1.0152,1.0155,1.0165,1.015,1.0162,1.0169,1.0157,1.0171,1.0171,1.0174,1.0192,1.02,1.0193,1.0228,1.0217,1.0219,1.022,1.0227,1.0231,1.0234,1.0189,1.0189,1.0189,0,0,1.0161,1.0166,1.0181,1.0184,1.0188,1.0186,1.019,1.0192,1.0192,1.0206,1.0196,1.0204,1.0219,1.022,1.0223,1.0253,1.0244,1.0255,1.0271,1.0279,1.0283,1.0285,1.0293,1.0297,1.0257,1.0257,1.0257,0,1.0178,1.0195,1.019,1.0202,1.0206,1.0195,1.021,1.0213,1.0219,1.0221,1.0214,1.023,1.0232,1.0249,1.0256,1.0259,1.0261,1.0254,1.0283,1.0285,1.0288,1.0295,1.0299,1.0258,1.0258,1.0258,1.0258,0,1.0213,1.0225,1.0236,1.0242,1.0248,1.0262,1.0257,1.0263,1.0258,1.0256,1.027,1.0271,1.0277,1.0282,1.0277,1.0297,1.0292,1.0284,1.027,1.0293,1.03,1.0303,1.026,1.026,1.0259,1.0259,0,0,1.0257,1.0259,1.0263,1.0264,1.0268,1.0275,1.0287,1.0294,1.0298,1.0302,1.0311,1.0322,1.0314,1.0317,1.0313,1.032,1.034,1.0311,1.031,1.0314,1.0359,1.0364,1.0367,1.0335,1.0335,1.0336,1.0358,0,1.0285,1.0306,1.0301,1.0321,1.0329,1.0319,1.0329,1.0331,1.0329,1.0335,1.0333,1.034,1.033,1.0332,1.0339,1.0336,1.0349,1.0335,1.034,1.0341,1.0338,1.0371,1.0377,1.0398,1.0361,1.0361,1.0362,0,1.0321,1.0326,1.0347,1.0346,1.035,1.0359,1.0363,1.037,1.0371,1.0369,1.0372,1.0365,1.0375,1.0362,1.0375,1.0365,1.0367,1.0366,1.0367,1.0366,1.0351,1.0369,1.0405,1.0407,1.0366,1.0366,1.0366,0,1.0347,1.0359,1.0373,1.0375,1.0375,1.0381,1.0382,1.0382,1.0386,1.0389,1.0391,1.0396,1.0398,1.0401,1.0395,1.0387,1.0407,1.0394,1.0404,1.0404,1.0407,1.0407,1.0442,1.0412,1.0412,1.0412,1.0412,0,1.0378,1.039,1.0384,1.0392,1.0405,1.0398,1.0411,1.041,1.041,1.0417,1.0408,1.0414,1.0407,1.0412,1.0408,1.0417,1.0418,1.0416,1.0414,1.0415,1.0415,1.0416,1.0413,1.0413,1.0413,1.0413,1.0412,0,1.0409,1.0405,1.0418,1.0417,1.0417,1.0426,1.0425,1.0431,1.0429,1.0437,1.0438,1.0434,1.0439,1.0434,1.0439,1.0436,1.0448,1.0445,1.0447,1.0445,1.0455,1.0453,1.0489,1.0493,1.0463,1.0463,1.0463,0,1.0428,1.0437,1.0436,1.044,1.0441,1.0447,1.045,1.0444,1.0447,1.0449,1.0455,1.0459,1.0462,1.0471,1.0467,1.047,1.0466,1.0479,1.0467,1.0467,1.0464,1.0463,1.0462,1.0481,1.0481,1.0481,1.0481,0,1.0461,1.0458,1.0463,1.0467,1.0471,1.0474,1.0476,1.0479,1.0472,1.0476,1.0482,1.0484,1.0489,1.0492,1.0494,1.0493,1.0486,1.0485,1.0487,1.0488,1.0488,1.0486,1.0452,1.0484,1.0484,1.0484,1.0484,1.0484,1.0484,1.0491,1.0491,1.0496,1.0497,1.0499,1.0504,1.0502,1.0506,1.0509,1.0505,1.0511,1.0511,1.0512,1.0512,1.0516,1.051,1.0514,1.0514,1.0515,1.0515,1.0489,1.0517,1.0516,1.0516,1.0516,1.0516,0,1.0515,1.0514,1.0519,1.0522,1.0525,1.0519,1.052,1.0523,1.0528,1.0529,1.0532,1.0537,1.054,1.0537,1.0539,1.0542,1.0539,1.0543,1.0542,1.0541,1.0521,1.0518,1.0546,1.0546,1.0546,1.0546,1.0546,1.0546,1.0531,1.0541,1.0538,1.0548,1.0547,1.0552,1.0553,1.0554,1.0554,1.056,1.0563,1.0561,1.0559,1.0561,1.0563,1.0562,1.0562,1.0567,1.0565,1.0546,1.0543,1.054,1.0537,1.0568,1.0568,1.0584,1.0584,1.0584]},{"header":{"parameterUnit":"m.s-1","parameterCategory":1,"la1":30.2991,"la2":30.254,"lo1":-89.0895,"lo2":-89.0444,"dy":0.0017,"dx":0.0017,"nx":28,"ny":28,"refTime":"2023-10-19T03:00:00:Z","depth":0,"parameterNumber":3,"parameterNumberName":"V-component_of_WINDS"},"data":[0,0,0,0,0,0,0,0,0,0,0,0,0,0,0,0,0,0,0,0,0,0,0,0,0,0,0,0,0,0,0,0,0,0,0,0,0,0,0,0,0,0,0,0,0,0,0,0,0,0,0,0,0,0,0,0,0,0,3.0392,3.0393,0,3.0531,3.0532,3.0534,3.0536,3.0534,3.0533,3.0531,3.0667,3.0672,3.0678,0,0,0,0,0,0,0,0,0,0,0,0,0,3.012,3.0125,3.0391,3.0393,3.0395,3.0531,3.0532,3.0534,3.0536,3.0534,3.0532,3.053,3.0666,3.0672,3.0678,0,0,0,0,0,0,0,0,0,0,0,0,0,3.0246,3.0126,3.0391,3.0412,3.0416,3.053,3.0533,3.0535,3.0537,3.0534,3.0532,3.0529,3.0664,3.0671,3.0679,3.078,0,0,3.0703,3.0706,0,0,0,0,0,0,0,0,3.0239,3.0256,3.0408,3.0411,3.0415,3.0514,3.0487,3.0617,3.0537,3.0491,3.0531,3.0528,3.0618,3.0629,3.0661,3.0786,3.0792,3.0704,3.0708,3.0712,3.0714,0,0,0,0,0,0,0,3.023,3.025,3.0446,3.041,3.0414,3.0412,3.0428,3.0511,3.0567,3.0494,3.0495,3.0512,3.0619,3.0653,3.0664,3.0794,3.0703,3.071,3.0715,3.0718,3.1004,3.1007,0,0,0,0,0,0,3.0218,3.0243,3.0442,3.0451,3.0319,3.0419,3.0436,3.0484,3.0566,3.0576,3.0514,3.0511,3.0641,3.0655,3.0669,3.079,3.0712,3.0719,3.0724,3.1001,3.1005,3.1008,0,0,0,0,0,0,3.0212,3.0236,3.0436,3.0347,3.0372,3.0427,3.0481,3.0489,3.0523,3.0581,3.059,3.0539,3.064,3.0658,3.0752,3.0794,3.0723,3.073,3.0998,3.1002,3.1006,3.1033,0,0,0,0,0,0,3.0204,3.0234,3.0275,3.0348,3.0377,3.0519,3.0484,3.0493,3.0537,3.0535,3.0607,3.0616,3.0639,3.074,3.0759,3.0804,3.0736,3.0994,3.1,3.1005,3.1028,3.1038,3.1046,0,0,0,0,0,3.0195,3.0276,3.0277,3.0301,3.043,3.0522,3.0538,3.0565,3.0541,3.058,3.0617,3.0614,3.0787,3.0749,3.0772,3.0819,3.0992,3.0998,3.1005,3.1025,3.1036,3.1045,0,0,0,0,0,0,3.0205,3.0286,3.0288,3.0396,3.0452,3.0522,3.0574,3.0576,3.0639,3.0635,3.0663,3.0679,3.0772,3.0805,3.0762,3.0919,3.0886,3.0897,3.0894,3.0905,3.0913,3.0902,3.0743,0,0,0,0,0,3.022,3.029,3.0357,3.0445,3.0474,3.0519,3.056,3.0575,3.0634,3.0657,3.0701,3.0756,3.0822,3.0866,3.093,3.1034,3.1047,3.1077,3.1085,3.1092,3.1101,3.1154,3.1167,3.1029,3.1029,3.1029,0,0,3.0251,3.0304,3.0347,3.0449,3.0494,3.0563,3.0539,3.0614,3.0664,3.0668,3.0759,3.0793,3.0856,3.0954,3.0999,3.0984,3.1142,3.11,3.1105,3.111,3.1162,3.1175,3.1186,3.1034,3.1033,3.1032,0,0,3.0344,3.0393,3.047,3.0516,3.0585,3.0615,3.0633,3.0703,3.0725,3.0818,3.0821,3.088,3.0995,3.1039,3.1076,3.1182,3.118,3.1202,3.1246,3.1298,3.1309,3.1318,3.1353,3.1366,3.1211,3.1211,3.1211,0,3.0373,3.0481,3.0509,3.0584,3.0627,3.0635,3.0712,3.0754,3.084,3.0868,3.0851,3.0994,3.1037,3.1144,3.1169,3.12,3.1219,3.1194,3.1305,3.1315,3.1325,3.1358,3.1372,3.1213,3.1213,3.1213,3.1213,0,3.0512,3.0585,3.064,3.0724,3.0773,3.0848,3.0886,3.0932,3.0942,3.0972,3.1063,3.1116,3.1189,3.1216,3.1227,3.1324,3.1312,3.13,3.1267,3.1339,3.1371,3.1384,3.1216,3.1216,3.1215,3.1215,0,0,3.0615,3.0713,3.0732,3.0769,3.0845,3.0901,3.0975,3.1049,3.1086,3.1145,3.1205,3.1301,3.129,3.1332,3.1348,3.1393,3.147,3.1375,3.1377,3.1389,3.1576,3.1583,3.1597,3.147,3.1472,3.1474,3.1569,0,3.0713,3.0848,3.0875,3.099,3.1056,3.1063,3.1127,3.1179,3.1208,3.1267,3.1298,3.1365,3.1346,3.1371,3.1417,3.1451,3.1507,3.1445,3.1523,3.1526,3.1505,3.1615,3.1623,3.171,3.1582,3.1584,3.1586,0,3.0847,3.0909,3.1031,3.1095,3.1124,3.1182,3.1249,3.1307,3.1364,3.1382,3.1428,3.1438,3.1512,3.1477,3.1577,3.1534,3.1567,3.1589,3.1592,3.1599,3.1559,3.1621,3.1739,3.1751,3.1606,3.1605,3.1603,0,3.0906,3.102,3.1107,3.1139,3.1217,3.1257,3.1291,3.1346,3.1387,3.1446,3.1473,3.1539,3.1574,3.1624,3.165,3.1622,3.1747,3.1715,3.1761,3.176,3.1785,3.1783,3.1907,3.1811,3.1811,3.181,3.181,0,3.1012,3.1085,3.1135,3.1188,3.127,3.1298,3.1377,3.141,3.1459,3.1516,3.1526,3.1579,3.1612,3.1669,3.169,3.1768,3.1784,3.1798,3.1803,3.1797,3.1794,3.1817,3.1811,3.1814,3.1813,3.1812,3.1812,0,3.1092,3.1128,3.1223,3.1289,3.1307,3.1364,3.1419,3.1469,3.1498,3.157,3.1589,3.1633,3.1701,3.1732,3.1816,3.1829,3.1917,3.1918,3.1898,3.1899,3.1942,3.1937,3.2084,3.2103,3.1996,3.1997,3.1998,0,3.1156,3.1213,3.1285,3.1324,3.136,3.1424,3.1466,3.1496,3.1539,3.1607,3.1648,3.1716,3.1772,3.1879,3.1917,3.198,3.1981,3.2028,3.199,3.1981,3.1978,3.1974,3.1978,3.2034,3.2035,3.2036,3.2037,0,3.1265,3.128,3.1342,3.1409,3.1459,3.1513,3.1566,3.1598,3.1635,3.1682,3.1752,3.1795,3.188,3.1946,3.2011,3.2043,3.2045,3.2049,3.2062,3.2055,3.204,3.2046,3.1914,3.2045,3.2044,3.2044,3.2043,3.2043,3.1337,3.1387,3.1445,3.1512,3.1555,3.1604,3.1653,3.1688,3.1747,3.182,3.1833,3.1906,3.1958,3.2046,3.208,3.2136,3.2124,3.2145,3.2149,3.2153,3.2154,3.2033,3.2148,3.2148,3.2148,3.2147,3.2147,0,3.1445,3.1482,3.1544,3.1617,3.1669,3.1669,3.1726,3.1769,3.1834,3.1884,3.1939,3.2017,3.208,3.2123,3.2187,3.2223,3.2225,3.2238,3.2235,3.2241,3.2162,3.2143,3.2235,3.2235,3.2235,3.2235,3.2235,3.2235,3.1506,3.1589,3.161,3.1713,3.1749,3.1822,3.1855,3.1898,3.1938,3.2025,3.2079,3.2107,3.2153,3.2219,3.2276,3.2287,3.2309,3.2322,3.2332,3.2257,3.2247,3.2238,3.222,3.2327,3.2327,3.2406,3.2406,3.2407]}]]